Regional Weather Roundup
Issued by NWS Sioux Falls, SD

Home | Current Version | Previous Version | Text Only | Print | Product List | Glossary On
Versions: 1 2 3 4 5 6 7 8 9 10 11 12 13 14 15 16 17 18 19 20 21 22 23 24 25 26 27 28 29 30 31 32 33 34 35 36 37 38 39 40 41 42 43 44 45 46 47 48 49 50
000
ASUS43 KFSD 240210
RWRFSD

WEATHER ROUNDUP FOR SE SOUTH DAKOTA/SW MINNESOTA/NW IOWA
NATIONAL WEATHER SERVICE SIOUX FALLS SD
800 PM CST FRI FEB 23 2018

NOTE: "FAIR" INDICATES FEW OR NO CLOUDS BELOW 12,000 FEET WITH NO
SIGNIFICANT WEATHER AND OR OBSTRUCTIONS TO VISIBILITY.


SDZ038>040-050-052>070-240300-
SOUTHEAST SOUTH DAKOTA

CITY           SKY/WX    TMP DP  RH WIND       PRES   REMARKS
BROOKINGS      CLOUDY    14  12  92 W5        30.29S FOG     WCI   6
CHAMBERLAIN    CLEAR      8   6  90 NW3       30.26S
HURON          CLEAR      5   3  91 W3        30.30F
MADISON        CLOUDY    14  14 100 W3        30.28S
MITCHELL       PTCLDY     9   7  92 N3        30.31F
SIOUX FALLS    CLOUDY    17  15  92 N8        30.29F FOG     WCI   7
WINNER         FAIR       9   5  84 SE7       30.21F WCI  -2
YANKTON        CLOUDY    10   9  92 N5        30.29F FOG     WCI   2
$$

MNZ071-072-080-081-089-090-097-098-240300-
SOUTHWEST MINNESOTA

CITY           SKY/WX    TMP DP  RH WIND       PRES   REMARKS
FAIRMONT       FOG       10   6  84 N6        30.30R VSB 1/2 WCI   0
JACKSON        CLOUDY    18  14  86 NW8       30.28S WCI   7
LUVERNE        CLOUDY    18  16  93 N8        30.30F WCI   7
MARSHALL       CLOUDY    11   8  88 W7        30.31R WCI   0
MONTEVIDEO     CLOUDY    12   7  79 N5        30.31S WCI   4
PIPESTONE      FOG       16  16 100 NW8       30.27S VSB 1   WCI   5
REDWOOD FALLS  CLEAR     18  15  88 W7        30.31S WCI   9
TRACY          CLEAR     17  16  94 W7        30.29S WCI   8
WORTHINGTON    CLOUDY    19  17  92 W10       30.28S WCI   7
$$

IAZ001>003-012>014-020>022-031-032-NEZ013-014-SDZ071-240300-
NORTHWEST IOWA

CITY           SKY/WX    TMP DP  RH WIND       PRES   REMARKS
CHEROKEE       CLOUDY    21  20  97 N8        30.28F WCI  11
DENISON        CLOUDY    19  19 100 N7        30.30R WCI  10
ESTHERVILLE    CLOUDY    10  10 100 NW9       30.28S WCI  -3
LE MARS        CLOUDY    19  19 100 N9        30.30S WCI   9
ORANGE CITY    CLOUDY    19  19 100 N6        30.28S FOG     WCI  11
SHELDON        CLOUDY    19  19 100 N10       30.27S WCI   8
SIOUX CITY     CLOUDY    20  18  92 N8        30.29F WCI  10
SPENCER        CLOUDY    22  19  89 NW13      30.28F WCI  10
STORM LAKE     CLEAR     21  21 100 N13       30.26F WCI   9
$$

ABBREVIATIONS USED IN REMARKS
   TC - TEMPERATURE IN CELSIUS
  WCI - WIND CHILL INDEX
   HX - HEAT INDEX
  VSB - VISIBILITY





USA.gov is the U.S. government's official web portal to all federal, state and local government web resources and services.